Location: Tierra del Sol
(32.6128°N, 116.3319°W)
Time: 05:39:16
(UTC-07:00)

Amateur Radio Satellites - All Passes

Search period start: 25 October 2014 05:09
Search period end: 26 October 2014 05:09
Location: Tierra del Sol, 32.6128°N, 116.3319°W

Satellite Date Start Highest point End Downlink Frequencies (MHz)
Time Altitude Azimuth
Uosat F 25 Oct 05:41:35 05:46:25 48° 287° (WNW) 05:51:14 435.120 FM
JAS-2 25 Oct 05:44:53 05:52:29 50° 99° (E) 05:59:52 435.800 - 435.900 CW/SSB, 435.910 FM
RS-15 25 Oct 05:49:05 05:58:05 27° 43° (NE) 06:07:18 29.354 - 29.394 USB, Beacon 29.352 USB
AO-7 25 Oct 06:09:45 06:17:23 42° 295° (WNW) 06:25:02 29.400 - 29.500 MHz
PANSAT 25 Oct 06:16:48 06:19:35 19° 161° (SSE) 06:22:22 not established
OPAL 25 Oct 06:27:16 06:30:24 16° 264° (W) 06:33:31 ?
STRAND 1 25 Oct 06:31:27 06:36:23 51° 73° (ENE) 06:41:22 ?
Hamsat 25 Oct 06:37:45 06:41:57 80° 283° (WNW) 06:46:11 145.90 MHz
Saudisat 1A 25 Oct 07:24:52 07:29:12 68° 299° (WNW) 07:33:36 436.775 MHz
JAS-2 25 Oct 07:30:27 07:37:02 31° 294° (WNW) 07:43:34 435.800 - 435.900 CW/SSB, 435.910 FM
SO-67 25 Oct 07:34:10 07:37:33 53° 100° (E) 07:40:54 435.3500 MHz FM
PANSAT 25 Oct 07:55:45 07:59:20 39° 173° (S) 08:02:56 not established
RS-15 25 Oct 08:00:26 08:11:44 83° 245° (WSW) 08:23:33 29.354 - 29.394 USB, Beacon 29.352 USB
STRAND 1 25 Oct 08:13:03 08:15:48 15° 267° (W) 08:18:34 ?
HO-68 25 Oct 08:23:54 08:28:14 17° 94° (E) 08:32:32 435.675 MHz FM
Oscar 10/S400 25 Oct 08:52:56 09:39:15 20° 162° (SSE) 09:55:26 145.825 - 145.975 CW/USB, Beacon 145.810 USB
MaSat-1 25 Oct 09:12:40 09:14:54 28° 64° (ENE) 09:17:01 437.345 MHz
PANSAT 25 Oct 09:35:36 09:39:14 42° 185° (S) 09:42:52 not established
UKube-1 25 Oct 09:49:47 09:53:37 30° 98° (E) 09:57:26 145.840 MHz, 145.915 MHz
HO-68 25 Oct 10:09:14 10:16:24 72° 288° (WNW) 10:23:31 435.675 MHz FM
RS-15 25 Oct 10:16:40 10:22:31 16° 260° (W) 10:28:32 29.354 - 29.394 USB, Beacon 29.352 USB
FUNcube-1 25 Oct 10:30:13 10:33:59 32° 98° (E) 10:37:42 145.950 - 145.970 MHz USB
Oscar 11 25 Oct 10:30:24 10:34:43 89° 282° (WNW) 10:39:01 145.825 FM, Beacon 2401.500 USB
ISS 25 Oct 10:52:02 10:53:57 15° 127° (SE) 10:55:51 145.800 FM
PANSAT 25 Oct 11:16:00 11:19:02 22° 198° (SSW) 11:22:03 not established
ZACube-1 25 Oct 11:21:36 11:25:43 53° 285° (WNW) 11:29:45 437.345 MHz
UKube-1 25 Oct 11:26:30 11:29:33 19° 291° (WNW) 11:32:36 145.840 MHz, 145.915 MHz
SO-50 25 Oct 11:30:07 11:33:08 18° 109° (ESE) 11:36:12 436.795 FM
KITSAT 1 25 Oct 11:44:21 11:52:21 72° 113° (ESE) 12:00:24 435.175 FM
HO-68 25 Oct 12:01:38 12:02:50 11° 304° (NW) 12:04:02 435.675 MHz FM
FUNcube-1 25 Oct 12:07:30 12:10:04 16° 291° (WNW) 12:12:36 145.950 - 145.970 MHz USB
ISS 25 Oct 12:27:15 12:30:21 37° 320° (NW) 12:33:29 145.800 FM
Oscar 19 25 Oct 12:51:32 12:55:57 30° 70° (ENE) 13:00:21 437.125 CW, 437.150 USB
UOSAT-12 25 Oct 12:52:43 12:53:16 10° 106° (ESE) 12:53:49 437.025 FM, 437.400 FM
Sapphire 25 Oct 12:55:26 13:00:35 42° 60° (ENE) 13:05:42 437.095 MHz 1200 baud AX-25 AFSK
SO-50 25 Oct 13:09:14 13:13:21 35° 304° (WNW) 13:17:34 436.795 FM
AO-27 25 Oct 13:12:04 13:15:37 19° 67° (ENE) 13:19:11 436.795 MHz FM
PCSat 25 Oct 13:17:42 13:23:09 75° 64° (ENE) 13:28:32 145.825 MHz
JAS-1B 25 Oct 13:20:16 13:26:08 50° 73° (ENE) 13:31:35 435.800 - 435.900 CW/SSB
AO-Echo 25 Oct 13:26:37 13:30:54 32° 71° (ENE) 13:35:18 ?
Oscar 16 25 Oct 13:36:31 13:41:41 89° 77° (ENE) 13:46:52 437.025 USB, Beacon 2401.1428
KITSAT 1 25 Oct 13:42:13 13:48:24 24° 311° (NW) 13:54:38 435.175 FM
Uribyol 2 25 Oct 13:57:31 14:02:37 58° 74° (ENE) 14:07:45 436.500 FM
ITAMSAT 1 25 Oct 14:03:43 14:08:51 63° 74° (ENE) 14:14:00 435.822 SSB
Gurwin Techsat 1B 25 Oct 14:28:07 14:33:16 54° 74° (ENE) 14:38:26 435.225 FM
UOSAT-12 25 Oct 14:28:13 14:32:46 64° 300° (WNW) 14:37:27 437.025 FM, 437.400 FM
Oscar 19 25 Oct 14:30:57 14:35:11 26° 263° (W) 14:39:27 437.125 CW, 437.150 USB
TMSAT-1 25 Oct 14:38:54 14:43:59 50° 73° (ENE) 14:49:06 436.925 FM
Sapphire 25 Oct 14:39:44 14:43:38 20° 255° (WSW) 14:47:32 437.095 MHz 1200 baud AX-25 AFSK
AO-27 25 Oct 14:49:50 14:54:45 43° 261° (W) 14:59:43 436.795 MHz FM
PCSat 25 Oct 15:04:49 15:05:49 11° 258° (WSW) 15:06:49 145.825 MHz
AO-Echo 25 Oct 15:05:56 15:09:39 22° 265° (W) 15:13:28 ?
AO-7 25 Oct 15:11:35 15:18:46 35° 63° (ENE) 15:25:58 29.400 - 29.500 MHz
JAS-1B 25 Oct 15:13:22 15:17:00 16° 264° (W) 15:20:29 435.800 - 435.900 CW/SSB
Uosat F 25 Oct 15:14:18 15:16:48 14° 65° (ENE) 15:19:18 435.120 FM
Uribyol 2 25 Oct 15:40:00 15:42:23 13° 267° (W) 15:44:45 436.500 FM
ITAMSAT 1 25 Oct 15:46:46 15:48:40 12° 268° (W) 15:50:34 435.822 SSB
Saudisat 1A 25 Oct 15:56:11 15:59:54 26° 55° (NE) 16:03:36 436.775 MHz
JAS-2 25 Oct 15:57:20 15:58:38 11° 57° (ENE) 15:59:58 435.800 - 435.900 CW/SSB, 435.910 FM
Gurwin Techsat 1B 25 Oct 16:10:41 16:13:29 14° 267° (W) 16:16:17 435.225 FM
TMSAT-1 25 Oct 16:21:00 16:24:06 16° 267° (W) 16:27:14 436.925 FM
Uosat F 25 Oct 16:50:09 16:55:03 56° 259° (W) 17:00:00 435.120 FM
OPAL 25 Oct 17:02:04 17:05:22 18° 97° (E) 17:08:37 ?
AO-7 25 Oct 17:03:27 17:11:15 46° 259° (WSW) 17:19:06 29.400 - 29.500 MHz
Hamsat 25 Oct 17:26:36 17:30:31 39° 74° (ENE) 17:34:25 145.90 MHz
Saudisat 1A 25 Oct 17:35:43 17:39:20 25° 249° (WSW) 17:42:56 436.775 MHz
JAS-2 25 Oct 17:36:38 17:42:24 85° 76° (ENE) 17:48:59 435.800 - 435.900 CW/SSB, 435.910 FM
OPAL 25 Oct 18:39:44 18:44:20 40° 290° (WNW) 18:48:55 ?
STRAND 1 25 Oct 18:47:14 18:51:27 25° 96° (E) 18:55:38 ?
ISS 25 Oct 18:59:29 19:02:23 27° 38° (NE) 19:05:16 145.800 FM
Hamsat 25 Oct 19:04:41 19:06:34 13° 267° (W) 19:08:26 145.90 MHz
SO-67 25 Oct 19:35:03 19:38:15 37° 262° (W) 19:41:28 435.3500 MHz FM
KITSAT 1 25 Oct 19:44:21 19:49:17 17° 44° (NE) 19:54:11 435.175 FM
RS-15 25 Oct 20:10:16 20:17:40 21° 102° (ESE) 20:24:57 29.354 - 29.394 USB, Beacon 29.352 USB
STRAND 1 25 Oct 20:26:06 20:30:34 30° 290° (WNW) 20:34:59 ?
HO-68 25 Oct 20:32:25 20:39:20 55° 70° (ENE) 20:46:18 435.675 MHz FM
ISS 25 Oct 20:36:20 20:38:57 21° 232° (SW) 20:41:33 145.800 FM
UKube-1 25 Oct 20:42:04 20:44:38 16° 68° (ENE) 20:47:12 145.840 MHz, 145.915 MHz
Oscar 11 25 Oct 21:20:58 21:24:59 39° 74° (ENE) 21:29:00 145.825 FM, Beacon 2401.500 USB
FUNcube-1 25 Oct 21:22:51 21:25:49 17° 69° (ENE) 21:28:47 145.950 - 145.970 MHz USB
KITSAT 1 25 Oct 21:37:46 21:45:53 82° 64° (ENE) 21:53:57 435.175 FM
SO-50 25 Oct 21:44:30 21:49:18 58° 60° (ENE) 21:54:06 436.795 FM
ZACube-1 25 Oct 22:12:48 22:17:22 67° 76° (ENE) 22:21:52 437.345 MHz
UKube-1 25 Oct 22:16:27 22:20:28 36° 261° (W) 22:24:30 145.840 MHz, 145.915 MHz
RS-15 25 Oct 22:17:37 22:28:42 80° 298° (WNW) 22:39:40 29.354 - 29.394 USB, Beacon 29.352 USB
HO-68 25 Oct 22:21:56 22:27:17 23° 265° (W) 22:32:41 435.675 MHz FM
MaSat-1 25 Oct 22:43:57 22:47:48 34° 109° (ESE) 22:51:23 437.345 MHz
FUNcube-1 25 Oct 22:57:39 23:01:53 36° 262° (W) 23:06:04 145.950 - 145.970 MHz USB
Oscar 11 25 Oct 22:59:06 23:01:16 14° 266° (W) 23:03:26 145.825 FM, Beacon 2401.500 USB
UOSAT-12 25 Oct 23:02:27 23:06:39 31° 55° (NE) 23:10:46 437.025 FM, 437.400 FM
SO-50 25 Oct 23:27:13 23:29:20 13° 253° (WSW) 23:31:28 436.795 FM
KITSAT 1 25 Oct 23:35:48 23:40:16 16° 258° (WSW) 23:44:44 435.175 FM
MaSat-1 26 Oct 00:20:59 00:23:24 15° 299° (WNW) 00:25:42 437.345 MHz
RS-15 26 Oct 00:35:18 00:42:57 21° 322° (NW) 00:50:41 29.354 - 29.394 USB, Beacon 29.352 USB
UOSAT-12 26 Oct 00:42:57 00:46:35 22° 250° (WSW) 00:50:08 437.025 FM, 437.400 FM
JAS-1B 26 Oct 01:08:05 01:13:19 21° 97° (E) 01:19:07 435.800 - 435.900 CW/SSB
Oscar 19 26 Oct 01:08:50 01:11:38 15° 94° (E) 01:14:24 437.125 CW, 437.150 USB
AO-Echo 26 Oct 01:39:14 01:42:29 16° 93° (E) 01:45:43 ?
Oscar 16 26 Oct 01:53:02 01:57:57 46° 100° (E) 02:02:50 437.025 USB, Beacon 2401.1428
PCSat 26 Oct 02:13:33 02:17:10 18° 105° (ESE) 02:20:47 145.825 MHz
Uribyol 2 26 Oct 02:15:22 02:19:54 30° 97° (E) 02:24:23 436.500 FM
ITAMSAT 1 26 Oct 02:21:38 02:26:18 32° 98° (E) 02:30:55 435.822 SSB
Oscar 19 26 Oct 02:46:15 02:51:11 50° 287° (WNW) 02:56:06 437.125 CW, 437.150 USB
Gurwin Techsat 1B 26 Oct 02:49:18 02:54:01 32° 97° (E) 02:58:41 435.225 FM
JAS-1B 26 Oct 02:57:02 03:03:55 64° 286° (WNW) 03:12:11 435.800 - 435.900 CW/SSB
TMSAT-1 26 Oct 02:59:46 03:04:20 29° 97° (E) 03:08:52 436.925 FM
AO-27 26 Oct 03:07:11 03:12:26 82° 284° (WNW) 03:17:38 436.795 MHz FM
AO-Echo 26 Oct 03:16:18 03:21:26 49° 287° (WNW) 03:26:30 ?
AO-7 26 Oct 03:21:14 03:24:09 12° 92° (E) 03:27:04 29.400 - 29.500 MHz
Sapphire 26 Oct 03:32:17 03:37:41 82° 295° (WNW) 03:43:08 437.095 MHz 1200 baud AX-25 AFSK
Oscar 16 26 Oct 03:33:39 03:36:53 17° 294° (WNW) 03:40:07 437.025 USB, Beacon 2401.1428
Uribyol 2 26 Oct 03:54:56 03:59:11 26° 291° (WNW) 04:03:26 436.500 FM
PCSat 26 Oct 03:54:58 04:00:08 47° 299° (WNW) 04:05:22 145.825 MHz
ITAMSAT 1 26 Oct 04:01:26 04:05:34 24° 292° (WNW) 04:09:42 435.822 SSB
OPAL 26 Oct 04:12:36 04:16:24 21° 66° (ENE) 04:20:10 ?
Gurwin Techsat 1B 26 Oct 04:29:28 04:33:47 26° 291° (WNW) 04:38:05 435.225 FM
TMSAT-1 26 Oct 04:39:40 04:44:06 28° 291° (WNW) 04:48:32 436.925 FM
JAS-2 26 Oct 04:51:52 04:57:07 19° 91° (E) 05:02:15 435.800 - 435.900 CW/SSB, 435.910 FM
